MTG-S1

Last updated on Sun Jan 18 2026 00:02:50 GMT+0000 (Coordinated Universal Time)

1 64723U 25143A 26017.29792116 -.00000013 00000+0 00000+0 0 9993 2 64723 0.7239 318.9072 0002737 321.7433 299.9061 1.00272593 1902
UTC large
Height (km)
Speed (km/s)
/
Latitude / Longitude
Inclination (degrees)
Orbital Period (minutes)
Azimuth
Elevation
Range (km)
Doppler Factor

Next 0 passes for location: London (51.5072 / 0.1276)

Sorry there are no passes over London.